User: anonymous   Login
Location: Unspecified
(0.0000°N, 0.0000°E)
Time: 00:17:13
(UTC+00:00)
Language:

JUGNU - Orbit

View from above orbital plane
View from above orbital plane
View from above satellite
View from above satellite

Ground track
Ground track

The orbit data is extracted from the following two-line orbital elements,

1 37839U 11058B   17328.01386216 +.00000322 +00000-0 +30020-4 0  9999
2 37839 019.9601 201.3668 0019013 145.0897 350.9126 14.12602093316219
Epoch (UTC): 24 November 2017 00:19:57
Eccentricity: 0.0019013
inclination: 19.9601°
perigee height: 837 km
apogee height: 864 km
right ascension of ascending node: 201.3668°
argument of perigee: 145.0897°
revolutions per day: 14.12602093
mean anomaly at epoch: 350.9126°
orbit number at epoch: 31621

The dashed part of the orbit path shows where the satellite is in the earth's shadow,  

DLR